Grand Junction, CO

4:33 PM MST on February 27, 2017 (GMT -0700)
Walker

Weather History for KGJT - May, 2013

Change the Weather History Date:

Thursday, May 30, 2013

  Actual Average Record
Temperature  
Mean Temperature 59 °F 66 °F  
Max Temperature 74 °F 81 °F 99 °F (2000)
Min Temperature 43 °F 51 °F 34 °F (2004)
Degree Days  
Heating Degree Days 6 2  
Month to date heating degree days 159 152  
Since 1 July heating degree days 6050 5586  
Cooling Degree Days 0 3  
Month to date cooling degree days 55 44  
Year to date cooling degree days 55 47  
Growing Degree Days 8 (Base 50)    
Moisture  
Dew Point 27 °F    
Average Humidity 45    
Maximum Humidity 76    
Minimum Humidity 14    
Precipitation  
Precipitation 0.00 in 0.03 in 0.49 in (1894)
Month to date precipitation 0.87 0.86  
Year to date precipitation 3.41 3.81  
Snow  
Snow 0.00 in 0.00 in 0.00 in (2002)
Month to date snowfall T 0.1  
Since 1 July snowfall 24.6 19.1  
Snow Depth 0.00 in    
Sea Level Pressure  
Sea Level Pressure 29.74 in    
Wind  
Wind Speed 12 mph (NW)    
Max Wind Speed 29 mph    
Max Gust Speed 38 mph    
Visibility 10 miles    
Events      
T = Trace of Precipitation, MM = Missing Value Source: NWS Daily Summary

Daily Weather History Graph

Daily Weather History Graph

Search for Another Location

Airport or City:

Trip Planner

Search our weather history database for the weather conditions in past years. The results will help you decide how hot, cold, wet, or windy it might be!

Date:

Astronomy

May. 30, 2013 Rise Set
Actual Time 5:50 AM MDT 8:33 PM MDT
Civil Twilight 5:19 AM MDT 9:04 PM MDT
Nautical Twilight 4:40 AM MDT 9:43 PM MDT
Astronomical Twilight 3:55 AM MDT 10:28 PM MDT
Moon 12:37 AM MDT (5/30) 12:00 PM MDT (5/30)
Length of Visible Light 15h 45m
Length of Day
14h 42m
Waning Gibbous, 61% of the Moon is Illuminated
May 30
Waning Gibbous
May 31
Last Quarter
Jun 8
New
Jun 16
First Quarter
Jun 23
Full

Hourly Weather History & Observations

Time (MDT) Temp. Windchill Dew Point Humidity Pressure Visibility Wind Dir Wind Speed Gust Speed Precip Events Conditions
12:53 AM 50.0 °F - 34.0 °F 54% 29.69 in 10.0 mi NE 3.5 mph - N/A   Clear
1:53 AM 52.0 °F - 35.1 °F 53% 29.69 in 10.0 mi NW 4.6 mph - N/A   Partly Cloudy
2:53 AM 50.0 °F - 35.1 °F 57% 29.70 in 10.0 mi SSW 4.6 mph - N/A   Clear
3:53 AM 45.0 °F 42.6 °F 35.1 °F 68% 29.73 in 10.0 mi NE 4.6 mph - N/A   Clear
4:53 AM 46.0 °F 43.9 °F 36.0 °F 68% 29.73 in 10.0 mi ENE 4.6 mph - N/A   Clear
5:53 AM 43.0 °F 41.3 °F 35.1 °F 74% 29.76 in 10.0 mi ENE 3.5 mph - N/A   Clear
6:53 AM 51.1 °F - 33.1 °F 50% 29.77 in 10.0 mi North 6.9 mph - N/A   Clear
7:53 AM 55.0 °F - 30.9 °F 40% 29.78 in 10.0 mi NNW 3.5 mph - N/A   Clear
8:53 AM 59.0 °F - 30.9 °F 35% 29.79 in 10.0 mi WNW 10.4 mph - N/A   Clear
9:53 AM 63.0 °F - 25.0 °F 24% 29.78 in 10.0 mi WNW 18.4 mph 25.3 mph N/A   Clear
10:53 AM 66.0 °F - 25.0 °F 21% 29.77 in 10.0 mi NW 19.6 mph 26.5 mph N/A   Clear
11:53 AM 66.9 °F - 25.0 °F 21% 29.77 in 10.0 mi West 11.5 mph 20.7 mph N/A   Clear
12:53 PM 69.1 °F - 25.0 °F 19% 29.75 in 10.0 mi West 15.0 mph 24.2 mph N/A   Partly Cloudy
1:53 PM 71.1 °F - 21.9 °F 16% 29.73 in 10.0 mi WNW 13.8 mph 26.5 mph N/A   Clear
2:53 PM 72.0 °F - 23.0 °F 16% 29.71 in 10.0 mi West 15.0 mph 28.8 mph N/A   Scattered Clouds
3:53 PM 71.1 °F - 21.0 °F 15% 29.72 in 10.0 mi WSW 19.6 mph 31.1 mph N/A   Mostly Cloudy
4:53 PM 73.9 °F - 21.9 °F 14% 29.70 in 10.0 mi WSW 23.0 mph 34.5 mph N/A   Clear
5:53 PM 72.0 °F - 19.0 °F 13% 29.70 in 10.0 mi West 21.9 mph 33.4 mph N/A   Partly Cloudy
6:53 PM 72.0 °F - 19.9 °F 14% 29.68 in 10.0 mi WNW 17.3 mph 25.3 mph N/A   Clear
7:53 PM 69.1 °F - 21.0 °F 16% 29.70 in 10.0 mi NNW 16.1 mph 26.5 mph N/A   Clear
8:53 PM 64.9 °F - 23.0 °F 20% 29.75 in 10.0 mi North 13.8 mph - N/A   Clear
9:53 PM 64.0 °F - 21.9 °F 20% 29.76 in 10.0 mi North 15.0 mph 23.0 mph N/A   Clear
10:53 PM 61.0 °F - 26.1 °F 26% 29.78 in 10.0 mi West 8.1 mph - N/A   Clear
11:53 PM 55.9 °F - 28.0 °F 34% 29.80 in 10.0 mi NW 6.9 mph - N/A   Clear